Time,TemperatureF,DewpointF,PressureIn,WindDirection,WindDirectionDegrees,WindSpeedMPH,WindSpeedGustMPH,Humidity,HourlyPrecipIn,Conditions,Clouds,dailyrainin,SoftwareType,DateUTC
2013-02-15 00:01:00,15.0,11.0,-100.00,NNW,346,12.0,16.0,82,-99.99,,,-99.99,,2013-02-15 07:01:00,
2013-02-15 00:11:00,15.0,11.0,-100.00,NNW,346,12.0,16.0,82,-99.99,,,-99.99,,2013-02-15 07:11:00,
2013-02-15 00:21:00,15.0,11.0,-100.00,NNW,334,10.0,16.0,85,-99.99,,,-99.99,,2013-02-15 07:21:00,
2013-02-15 00:31:00,15.0,12.0,-100.00,NNW,333,12.0,18.0,86,-99.99,,,-99.99,,2013-02-15 07:31:00,
2013-02-15 00:41:00,15.0,12.0,-100.00,NNW,333,12.0,18.0,86,-99.99,,,-99.99,,2013-02-15 07:41:00,
2013-02-15 00:52:00,14.0,13.0,-100.00,NNW,344,11.0,18.0,94,-99.99,,,-99.99,,2013-02-15 07:52:00,
2013-02-15 01:01:00,14.0,14.0,-100.00,North,351,10.0,14.0,100,-99.99,,,-99.99,,2013-02-15 08:01:00,
2013-02-15 01:11:00,14.0,14.0,-100.00,North,351,10.0,14.0,100,-99.99,,,-99.99,,2013-02-15 08:11:00,
2013-02-15 01:21:00,13.0,13.0,-100.00,NNW,343,12.0,16.0,100,-99.99,,,-99.99,,2013-02-15 08:21:00,
2013-02-15 01:31:00,13.0,13.0,-100.00,NNW,328,13.0,17.0,100,-99.99,,,-99.99,,2013-02-15 08:31:00,
2013-02-15 01:41:00,13.0,13.0,-100.00,NNW,328,13.0,17.0,100,-99.99,,,-99.99,,2013-02-15 08:41:00,
2013-02-15 01:53:00,13.0,13.0,-100.00,NNW,332,11.0,14.0,100,-99.99,,,-99.99,,2013-02-15 08:53:00,
2013-02-15 02:01:00,13.0,13.0,-100.00,NNW,341,15.0,20.0,100,-99.99,,,-99.99,,2013-02-15 09:01:00,
2013-02-15 02:12:00,13.0,13.0,-100.00,NNW,341,15.0,20.0,100,-99.99,,,-99.99,,2013-02-15 09:12:00,
2013-02-15 02:21:00,13.0,13.0,-100.00,NNW,340,19.0,23.0,100,-99.99,,,-99.99,,2013-02-15 09:21:00,
2013-02-15 02:31:00,14.0,14.0,-100.00,NNW,343,19.0,26.0,100,-99.99,,,-99.99,,2013-02-15 09:31:00,
2013-02-15 02:41:00,14.0,14.0,-100.00,NNW,343,19.0,26.0,100,-99.99,,,-99.99,,2013-02-15 09:41:00,
2013-02-15 02:52:00,14.0,14.0,-100.00,NNW,338,18.0,22.0,100,-99.99,,,-99.99,,2013-02-15 09:52:00,
2013-02-15 03:01:00,14.0,14.0,-100.00,NNW,343,18.0,24.0,100,-99.99,,,-99.99,,2013-02-15 10:01:00,
2013-02-15 03:11:00,14.0,14.0,-100.00,NNW,343,18.0,24.0,100,-99.99,,,-99.99,,2013-02-15 10:11:00,
2013-02-15 03:21:00,14.0,14.0,-100.00,NNW,344,18.0,25.0,100,-99.99,,,-99.99,,2013-02-15 10:21:00,
2013-02-15 03:31:00,14.0,14.0,-100.00,NNW,344,17.0,24.0,100,-99.99,,,-99.99,,2013-02-15 10:31:00,
2013-02-15 03:41:00,14.0,14.0,-100.00,NNW,344,17.0,24.0,100,-99.99,,,-99.99,,2013-02-15 10:41:00,
2013-02-15 03:52:00,14.0,14.0,-100.00,NNW,337,17.0,22.0,100,-99.99,,,-99.99,,2013-02-15 10:52:00,
2013-02-15 04:01:00,14.0,14.0,-100.00,NNW,343,17.0,23.0,100,-99.99,,,-99.99,,2013-02-15 11:01:00,
2013-02-15 04:11:00,14.0,14.0,-100.00,NNW,343,17.0,23.0,100,-99.99,,,-99.99,,2013-02-15 11:11:00,
2013-02-15 04:22:00,14.0,14.0,-100.00,NNW,346,18.0,22.0,100,-99.99,,,-99.99,,2013-02-15 11:22:00,
2013-02-15 04:31:00,14.0,14.0,-100.00,North,352,17.0,21.0,100,-99.99,,,-99.99,,2013-02-15 11:31:00,
2013-02-15 04:42:00,14.0,14.0,-100.00,North,352,17.0,21.0,100,-99.99,,,-99.99,,2013-02-15 11:42:00,
2013-02-15 04:52:00,14.0,14.0,-100.00,North,351,15.0,18.0,100,-99.99,,,-99.99,,2013-02-15 11:52:00,
2013-02-15 05:01:00,14.0,14.0,-100.00,North,350,17.0,20.0,100,-99.99,,,-99.99,,2013-02-15 12:01:00,
2013-02-15 05:11:00,14.0,14.0,-100.00,North,350,17.0,20.0,100,-99.99,,,-99.99,,2013-02-15 12:11:00,
2013-02-15 05:21:00,13.0,13.0,-100.00,NNW,346,17.0,22.0,100,-99.99,,,-99.99,,2013-02-15 12:21:00,
2013-02-15 05:31:00,13.0,13.0,-100.00,NNW,344,16.0,20.0,100,-99.99,,,-99.99,,2013-02-15 12:31:00,
2013-02-15 05:42:00,13.0,13.0,-100.00,NNW,344,16.0,20.0,100,-99.99,,,-99.99,,2013-02-15 12:42:00,
2013-02-15 05:52:00,13.0,13.0,-100.00,NNW,346,15.0,19.0,100,-99.99,,,-99.99,,2013-02-15 12:52:00,
2013-02-15 06:02:00,13.0,13.0,-100.00,NNW,347,13.0,16.0,100,-99.99,,,-99.99,,2013-02-15 13:02:00,
2013-02-15 06:11:00,13.0,13.0,-100.00,NNW,347,13.0,16.0,100,-99.99,,,-99.99,,2013-02-15 13:11:00,
2013-02-15 06:21:00,13.0,13.0,-100.00,North,349,11.0,14.0,100,-99.99,,,-99.99,,2013-02-15 13:21:00,
2013-02-15 06:31:00,13.0,13.0,-100.00,NNW,346,12.0,13.0,100,-99.99,,,-99.99,,2013-02-15 13:31:00,
2013-02-15 06:41:00,13.0,13.0,-100.00,NNW,346,12.0,13.0,100,-99.99,,,-99.99,,2013-02-15 13:41:00,
2013-02-15 06:52:00,13.0,13.0,-100.00,NNW,346,13.0,16.0,100,-99.99,,,-99.99,,2013-02-15 13:52:00,
2013-02-15 07:01:00,13.0,13.0,-100.00,NNW,341,13.0,15.0,100,-99.99,,,-99.99,,2013-02-15 14:01:00,
2013-02-15 07:11:00,13.0,13.0,-100.00,NNW,341,13.0,15.0,100,-99.99,,,-99.99,,2013-02-15 14:11:00,
2013-02-15 07:21:00,13.0,13.0,-100.00,NNW,342,14.0,22.0,100,-99.99,,,-99.99,,2013-02-15 14:21:00,
2013-02-15 07:32:00,14.0,14.0,-100.00,NNW,345,19.0,24.0,100,-99.99,,,-99.99,,2013-02-15 14:32:00,
2013-02-15 07:41:00,14.0,14.0,-100.00,NNW,345,19.0,24.0,100,-99.99,,,-99.99,,2013-02-15 14:41:00,
2013-02-15 07:52:00,14.0,14.0,-100.00,NNW,346,16.0,22.0,100,-99.99,,,-99.99,,2013-02-15 14:52:00,
2013-02-15 08:01:00,14.0,14.0,-100.00,NNW,347,15.0,20.0,100,-99.99,,,-99.99,,2013-02-15 15:01:00,
2013-02-15 08:11:00,14.0,14.0,-100.00,NNW,347,15.0,20.0,100,-99.99,,,-99.99,,2013-02-15 15:11:00,
2013-02-15 08:21:00,14.0,14.0,-100.00,North,350,12.0,14.0,100,-99.99,,,-99.99,,2013-02-15 15:21:00,
2013-02-15 08:32:00,14.0,14.0,-100.00,North,354,11.0,15.0,100,-99.99,,,-99.99,,2013-02-15 15:32:00,
2013-02-15 08:41:00,14.0,14.0,-100.00,North,354,11.0,15.0,100,-99.99,,,-99.99,,2013-02-15 15:41:00,
2013-02-15 08:52:00,14.0,14.0,-100.00,North,354,11.0,15.0,100,-99.99,,,-99.99,,2013-02-15 15:52:00,
2013-02-15 09:01:00,14.0,14.0,-100.00,North,352,13.0,16.0,100,-99.99,,,-99.99,,2013-02-15 16:01:00,
2013-02-15 09:11:00,14.0,14.0,-100.00,North,352,13.0,16.0,100,-99.99,,,-99.99,,2013-02-15 16:11:00,
2013-02-15 09:22:00,14.0,14.0,-100.00,North,354,11.0,16.0,100,-99.99,,,-99.99,,2013-02-15 16:22:00,
2013-02-15 09:31:00,15.0,15.0,-100.00,North,359,13.0,18.0,100,-99.99,,,-99.99,,2013-02-15 16:31:00,
2013-02-15 09:42:00,15.0,15.0,-100.00,North,359,13.0,18.0,100,-99.99,,,-99.99,,2013-02-15 16:42:00,
2013-02-15 09:52:00,15.0,15.0,-100.00,North,360,16.0,22.0,100,-99.99,,,-99.99,,2013-02-15 16:52:00,
2013-02-15 10:01:00,15.0,15.0,-100.00,North,353,18.0,24.0,100,-99.99,,,-99.99,,2013-02-15 17:01:00,
2013-02-15 10:11:00,15.0,15.0,-100.00,North,353,18.0,24.0,100,-99.99,,,-99.99,,2013-02-15 17:11:00,
2013-02-15 10:21:00,15.0,15.0,-100.00,North,357,18.0,24.0,100,-99.99,,,-99.99,,2013-02-15 17:21:00,
2013-02-15 10:32:00,15.0,15.0,-100.00,North,357,15.0,22.0,100,-99.99,,,-99.99,,2013-02-15 17:32:00,
2013-02-15 10:41:00,15.0,15.0,-100.00,North,357,15.0,22.0,100,-99.99,,,-99.99,,2013-02-15 17:41:00,
2013-02-15 10:52:00,16.0,16.0,-100.00,North,1,13.0,17.0,100,-99.99,,,-99.99,,2013-02-15 17:52:00,
2013-02-15 11:01:00,16.0,16.0,-100.00,North,360,13.0,17.0,100,-99.99,,,-99.99,,2013-02-15 18:01:00,
2013-02-15 11:11:00,16.0,16.0,-100.00,North,360,13.0,17.0,100,-99.99,,,-99.99,,2013-02-15 18:11:00,
2013-02-15 11:21:00,17.0,17.0,-100.00,North,358,8.0,13.0,100,-99.99,,,-99.99,,2013-02-15 18:21:00,
2013-02-15 11:31:00,18.0,18.0,-100.00,North,350,8.0,14.0,100,-99.99,,,-99.99,,2013-02-15 18:31:00,
2013-02-15 11:41:00,18.0,18.0,-100.00,North,350,8.0,14.0,100,-99.99,,,-99.99,,2013-02-15 18:41:00,
2013-02-15 11:52:00,18.0,18.0,-100.00,North,360,8.0,12.0,100,-99.99,,,-99.99,,2013-02-15 18:52:00,
2013-02-15 12:01:00,19.0,19.0,-100.00,NNW,347,8.0,13.0,99,-99.99,,,-99.99,,2013-02-15 19:01:00,
2013-02-15 12:11:00,19.0,19.0,-100.00,NNW,347,8.0,13.0,99,-99.99,,,-99.99,,2013-02-15 19:11:00,
2013-02-15 12:21:00,20.0,19.0,-100.00,North,352,7.0,10.0,95,-99.99,,,-99.99,,2013-02-15 19:21:00,
2013-02-15 12:32:00,21.0,19.0,-100.00,NNE,20,4.0,7.0,91,-99.99,,,-99.99,,2013-02-15 19:32:00,
2013-02-15 12:41:00,21.0,19.0,-100.00,NNE,20,4.0,7.0,91,-99.99,,,-99.99,,2013-02-15 19:41:00,
2013-02-15 12:52:00,21.0,19.0,-100.00,North,349,8.0,12.0,91,-99.99,,,-99.99,,2013-02-15 19:52:00,
2013-02-15 13:01:00,21.0,19.0,-100.00,North,356,6.0,9.0,90,-99.99,,,-99.99,,2013-02-15 20:01:00,
2013-02-15 13:11:00,21.0,19.0,-100.00,North,356,6.0,9.0,90,-99.99,,,-99.99,,2013-02-15 20:11:00,
2013-02-15 13:21:00,22.0,19.0,-100.00,NNW,344,7.0,12.0,88,-99.99,,,-99.99,,2013-02-15 20:21:00,
2013-02-15 13:32:00,26.0,20.0,-100.00,NW,308,4.0,8.0,78,-99.99,,,-99.99,,2013-02-15 20:32:00,
2013-02-15 13:42:00,26.0,20.0,-100.00,NW,308,4.0,8.0,78,-99.99,,,-99.99,,2013-02-15 20:42:00,
2013-02-15 13:52:00,26.0,18.0,-100.00,NW,308,4.0,8.0,71,-99.99,,,-99.99,,2013-02-15 20:52:00,
2013-02-15 14:01:00,25.0,19.0,-100.00,NNW,347,7.0,11.0,77,-99.99,,,-99.99,,2013-02-15 21:01:00,
2013-02-15 14:11:00,25.0,19.0,-100.00,NNW,347,7.0,11.0,77,-99.99,,,-99.99,,2013-02-15 21:11:00,
2013-02-15 14:21:00,24.0,17.0,-100.00,North,352,8.0,12.0,75,-99.99,,,-99.99,,2013-02-15 21:21:00,
2013-02-15 14:31:00,24.0,18.0,-100.00,North,0,6.0,8.0,79,-99.99,,,-99.99,,2013-02-15 21:31:00,
2013-02-15 14:42:00,24.0,18.0,-100.00,North,0,6.0,8.0,79,-99.99,,,-99.99,,2013-02-15 21:42:00,
2013-02-15 14:52:00,25.0,20.0,-100.00,NNE,13,5.0,7.0,81,-99.99,,,-99.99,,2013-02-15 21:52:00,
2013-02-15 15:02:00,23.0,19.0,-100.00,North,357,8.0,11.0,85,-99.99,,,-99.99,,2013-02-15 22:02:00,
2013-02-15 15:11:00,23.0,19.0,-100.00,North,357,8.0,11.0,85,-99.99,,,-99.99,,2013-02-15 22:11:00,
2013-02-15 15:21:00,24.0,18.0,-100.00,North,354,7.0,11.0,76,-99.99,,,-99.99,,2013-02-15 22:21:00,
2013-02-15 15:31:00,25.0,19.0,-100.00,NNW,344,6.0,9.0,79,-99.99,,,-99.99,,2013-02-15 22:31:00,
2013-02-15 15:41:00,25.0,19.0,-100.00,NNW,344,6.0,9.0,79,-99.99,,,-99.99,,2013-02-15 22:41:00,
2013-02-15 15:52:00,26.0,20.0,-100.00,North,352,5.0,9.0,78,-99.99,,,-99.99,,2013-02-15 22:52:00,
2013-02-15 16:02:00,25.0,20.0,-100.00,North,352,6.0,9.0,81,-99.99,,,-99.99,,2013-02-15 23:02:00,
2013-02-15 16:11:00,25.0,20.0,-100.00,North,352,6.0,9.0,81,-99.99,,,-99.99,,2013-02-15 23:11:00,
2013-02-15 16:21:00,25.0,19.0,-100.00,NNW,347,7.0,11.0,79,-99.99,,,-99.99,,2013-02-15 23:21:00,
2013-02-15 16:31:00,25.0,19.0,-100.00,NNW,338,9.0,12.0,79,-99.99,,,-99.99,,2013-02-15 23:31:00,
2013-02-15 16:41:00,25.0,19.0,-100.00,NNW,338,9.0,12.0,79,-99.99,,,-99.99,,2013-02-15 23:41:00,
2013-02-15 16:52:00,26.0,19.0,-100.00,NNW,336,8.0,12.0,76,-99.99,,,-99.99,,2013-02-15 23:52:00,
2013-02-15 17:02:00,26.0,19.0,-100.00,NNW,337,9.0,15.0,73,-99.99,,,-99.99,,2013-02-16 00:02:00,
2013-02-15 17:11:00,26.0,19.0,-100.00,NNW,337,9.0,15.0,73,-99.99,,,-99.99,,2013-02-16 00:11:00,
2013-02-15 17:21:00,25.0,18.0,-100.00,NNW,340,8.0,12.0,75,-99.99,,,-99.99,,2013-02-16 00:21:00,
2013-02-15 17:31:00,24.0,18.0,-100.00,NNW,339,7.0,10.0,78,-99.99,,,-99.99,,2013-02-16 00:31:00,
2013-02-15 17:41:00,24.0,18.0,-100.00,NNW,339,7.0,10.0,78,-99.99,,,-99.99,,2013-02-16 00:41:00,
2013-02-15 17:52:00,23.0,17.0,-100.00,North,349,10.0,13.0,77,-99.99,,,-99.99,,2013-02-16 00:52:00,
2013-02-15 18:02:00,23.0,17.0,-100.00,NNW,347,11.0,14.0,76,-99.99,,,-99.99,,2013-02-16 01:02:00,
2013-02-15 18:11:00,23.0,17.0,-100.00,NNW,347,11.0,14.0,76,-99.99,,,-99.99,,2013-02-16 01:11:00,
2013-02-15 18:21:00,23.0,15.0,-100.00,NNW,346,12.0,15.0,72,-99.99,,,-99.99,,2013-02-16 01:21:00,
2013-02-15 18:31:00,23.0,14.0,-100.00,North,352,12.0,15.0,68,-99.99,,,-99.99,,2013-02-16 01:31:00,
2013-02-15 18:41:00,23.0,14.0,-100.00,North,352,12.0,15.0,68,-99.99,,,-99.99,,2013-02-16 01:41:00,
2013-02-15 18:52:00,24.0,14.0,-100.00,North,357,11.0,15.0,64,-99.99,,,-99.99,,2013-02-16 01:52:00,
2013-02-15 19:01:00,24.0,13.0,-100.00,North,1,10.0,12.0,63,-99.99,,,-99.99,,2013-02-16 02:01:00,
2013-02-15 19:11:00,24.0,13.0,-100.00,North,1,10.0,12.0,63,-99.99,,,-99.99,,2013-02-16 02:11:00,
2013-02-15 19:21:00,24.0,14.0,-100.00,North,4,8.0,9.0,64,-99.99,,,-99.99,,2013-02-16 02:21:00,
2013-02-15 19:31:00,23.0,13.0,-100.00,North,6,8.0,9.0,66,-99.99,,,-99.99,,2013-02-16 02:31:00,
2013-02-15 19:42:00,23.0,13.0,-100.00,North,6,8.0,9.0,66,-99.99,,,-99.99,,2013-02-16 02:42:00,
2013-02-15 19:52:00,23.0,14.0,-100.00,North,356,8.0,9.0,67,-99.99,,,-99.99,,2013-02-16 02:52:00,
2013-02-15 20:01:00,23.0,14.0,-100.00,North,350,9.0,10.0,67,-99.99,,,-99.99,,2013-02-16 03:01:00,
2013-02-15 20:11:00,23.0,14.0,-100.00,North,350,9.0,10.0,67,-99.99,,,-99.99,,2013-02-16 03:11:00,
2013-02-15 20:21:00,23.0,14.0,-100.00,NNW,347,10.0,12.0,67,-99.99,,,-99.99,,2013-02-16 03:21:00,
2013-02-15 20:31:00,23.0,13.0,-100.00,NNW,348,10.0,12.0,66,-99.99,,,-99.99,,2013-02-16 03:31:00,
2013-02-15 20:41:00,23.0,13.0,-100.00,NNW,348,10.0,12.0,66,-99.99,,,-99.99,,2013-02-16 03:41:00,
2013-02-15 20:52:00,23.0,12.0,-100.00,NNW,342,10.0,11.0,63,-99.99,,,-99.99,,2013-02-16 03:52:00,
2013-02-15 21:01:00,24.0,10.0,-100.00,NNW,343,8.0,12.0,54,-99.99,,,-99.99,,2013-02-16 04:01:00,
2013-02-15 21:11:00,24.0,10.0,-100.00,NNW,343,8.0,12.0,54,-99.99,,,-99.99,,2013-02-16 04:11:00,
2013-02-15 21:21:00,24.0,9.0,-100.00,NNW,336,6.0,8.0,52,-99.99,,,-99.99,,2013-02-16 04:21:00,
2013-02-15 21:31:00,23.0,9.0,-100.00,NNW,342,5.0,7.0,55,-99.99,,,-99.99,,2013-02-16 04:31:00,
2013-02-15 21:41:00,23.0,9.0,-100.00,NNW,342,5.0,7.0,55,-99.99,,,-99.99,,2013-02-16 04:41:00,
2013-02-15 21:52:00,24.0,9.0,-100.00,NNW,329,9.0,12.0,53,-99.99,,,-99.99,,2013-02-16 04:52:00,
2013-02-15 22:01:00,24.0,8.0,-100.00,NW,322,10.0,12.0,49,-99.99,,,-99.99,,2013-02-16 05:01:00,
2013-02-15 22:11:00,24.0,8.0,-100.00,NW,322,10.0,12.0,49,-99.99,,,-99.99,,2013-02-16 05:11:00,
2013-02-15 22:21:00,24.0,9.0,-100.00,NW,322,8.0,11.0,51,-99.99,,,-99.99,,2013-02-16 05:21:00,
2013-02-15 22:31:00,24.0,9.0,-100.00,NNW,331,9.0,11.0,53,-99.99,,,-99.99,,2013-02-16 05:31:00,
2013-02-15 22:42:00,24.0,9.0,-100.00,NNW,331,9.0,11.0,53,-99.99,,,-99.99,,2013-02-16 05:42:00,
2013-02-15 22:52:00,24.0,9.0,-100.00,NNW,341,9.0,11.0,51,-99.99,,,-99.99,,2013-02-16 05:52:00,
2013-02-15 23:01:00,24.0,9.0,-100.00,NNW,341,8.0,10.0,51,-99.99,,,-99.99,,2013-02-16 06:01:00,
2013-02-15 23:11:00,24.0,9.0,-100.00,NNW,341,8.0,10.0,51,-99.99,,,-99.99,,2013-02-16 06:11:00,
2013-02-15 23:21:00,25.0,9.0,-100.00,NNW,336,8.0,10.0,50,-99.99,,,-99.99,,2013-02-16 06:21:00,
2013-02-15 23:32:00,25.0,8.0,-100.00,NW,323,10.0,13.0,48,-99.99,,,-99.99,,2013-02-16 06:32:00,
2013-02-15 23:42:00,25.0,8.0,-100.00,NW,323,10.0,13.0,48,-99.99,,,-99.99,,2013-02-16 06:42:00,
2013-02-15 23:52:00,25.0,8.0,-100.00,NW,322,10.0,12.0,47,-99.99,,,-99.99,,2013-02-16 06:52:00,